METAR AND TAF INFORMATION
METAR FOR SKMR
ADDS - METARS form results

(1611 UTC 18 February 2020)
Data provider http://aviationweather.gov/metar/data/
 
METAR text: SKMR 181600Z 00000KT 9999 FEW014 33/25 A2975
Conditions at: SKMR (MONTERIA/LOS GAR, CO) observed 1600 UTC 18 February 2020
Temperature: 33.0°C (91°F)
Dewpoint: 25.0°C (77°F) [RH = 63%]
Pressure (altimeter): 29.75 inches Hg (1007.5 mb)
Winds: calm
Visibility: 6 or more miles (10+ km)
Ceiling: at least 12,000 feet AGL
Clouds: few clouds at 1400 feet AGL
Weather: no significant weather observed at this time

 AIRPORT MAP

 RUNWAY INFORMATION
Runway 14 Runway length 6285 ft Runway width 115 ft
Runway elevation 20 ft Runway displaced threshold 0 ft Runway heading 138
Runway 32 Runway length 6285 ft Runway width 115 ft
Runway elevation 18 ft Runway displaced threshold 0 ft Runway heading 318

 AIRPORT FREQUENCIES
Type INFO Name MONTERIA F Frequency 127.5 MHZ
Type RDO Name MONTERIA R Frequency 348.8 MHZ
Type TWR Name TWR Frequency 118.1 MHZ

 AIRPORT NEAR NAVIGATION AIDS
Type VOR-DME Name Monteria Frequency 114400 KHZ



Powered by Virtual Airlines Manager [v2.6.2]